Change the Weather History Date:

Friday, November 22, 2013

  Actual Average Record
Temperature  
Mean Temperature 26 °F -  
Max Temperature 30 °F 37 °F 62 °F (2012)
Min Temperature 21 °F 20 °F -7 °F (1929)
Degree Days  
Heating Degree Days 40    
Moisture  
Dew Point 18 °F    
Average Humidity 74    
Maximum Humidity 86    
Minimum Humidity 47    
Precipitation  
Precipitation 0.00 in - - ()
Sea Level Pressure  
Sea Level Pressure 30.43 in    
Wind  
Wind Speed 13 mph (NW)    
Max Wind Speed 20 mph    
Max Gust Speed 28 mph    
Visibility 7 miles    
Events Snow    
Averages and records for this station are not official NWS values.
T = Trace of Precipitation, MM = Missing Value Source: NWS Daily Summary

Daily Weather History Graph

Daily Weather History Graph

Search for Another Location

Airport or City:

Trip Planner

Search our weather history database for the weather conditions in past years. The results will help you decide how hot, cold, wet, or windy it might be!

Date:

Astronomy

Nov. 22, 2013 Rise Set
Actual Time 7:06 AM CST 4:26 PM CST
Civil Twilight 6:34 AM CST 4:58 PM CST
Nautical Twilight 5:58 AM CST 5:34 PM CST
Astronomical Twilight 5:24 AM CST 6:09 PM CST
Moon 9:02 PM CST (11/22) 10:47 AM CST (11/22)
Length of Visible Light 10h 24m
Length of Day
9h 19m
Waning Gibbous, 78% of the Moon is Illuminated
Nov 22
Waning Gibbous
Nov 25
Last Quarter
Dec 2
New
Dec 9
First Quarter
Dec 17
Full

Hourly Weather History & Observations

Time (CST) Temp. Windchill Dew Point Humidity Pressure Visibility Wind Dir Wind Speed Gust Speed Precip Events Conditions
12:12 AM 28.4 °F 18.0 °F 24.8 °F 86% 30.32 in 2.0 mi NNW 12.7 mph 21.9 mph 0.00 in Snow Light Snow
12:19 AM 28.4 °F 18.5 °F 24.8 °F 86% 30.32 in 2.0 mi NNW 11.5 mph - 0.00 in Snow Light Snow
12:36 AM 28.4 °F 16.6 °F 24.8 °F 86% 30.32 in 1.5 mi NNW 16.1 mph - 0.00 in Snow Light Snow
12:54 AM 28.0 °F 17.0 °F 24.1 °F 85% 30.38 in 2.0 mi NNW 13.8 mph - 0.00 in Snow Light Snow
1:18 AM 28.4 °F 16.6 °F 24.8 °F 86% 30.34 in 1.8 mi NNW 16.1 mph - 0.00 in Snow Light Snow
1:45 AM 26.6 °F 13.4 °F 23.0 °F 86% 30.34 in 2.5 mi NNW 18.4 mph 27.6 mph 0.00 in Snow Light Snow
1:54 AM 27.0 °F 13.9 °F 23.0 °F 85% 30.41 in 2.5 mi NNW 18.4 mph 25.3 mph 0.00 in Snow Light Snow
2:07 AM 26.6 °F 13.4 °F 21.2 °F 80% 30.36 in 3.0 mi NNW 18.4 mph 25.3 mph 0.00 in Snow Light Snow
2:30 AM 26.6 °F 15.7 °F 21.2 °F 80% 30.37 in 2.5 mi NNW 12.7 mph 23.0 mph 0.00 in Snow Light Snow
2:54 AM 26.1 °F 13.6 °F 21.9 °F 84% 30.43 in 1.8 mi NNW 16.1 mph - 0.00 in Snow Light Snow
3:10 AM 26.6 °F 15.2 °F 21.2 °F 80% 30.38 in 2.5 mi NNW 13.8 mph - 0.00 in Snow Light Snow
3:54 AM 26.1 °F 15.6 °F 21.9 °F 84% 30.42 in 1.8 mi North 11.5 mph - 0.00 in Snow Light Snow
4:01 AM 26.6 °F 16.2 °F 21.2 °F 80% 30.38 in 2.5 mi NNW 11.5 mph - 0.00 in Snow Light Snow
4:06 AM 26.6 °F 16.8 °F 21.2 °F 80% 30.37 in 3.0 mi NNW 10.4 mph - 0.00 in Snow Light Snow
4:54 AM 25.0 °F 13.6 °F 19.9 °F 81% 30.44 in 10.0 mi NNW 12.7 mph - 0.00 in   Overcast
5:13 AM 24.8 °F 12.9 °F 19.4 °F 80% 30.39 in 10.0 mi NNW 13.8 mph - N/A   Overcast
5:24 AM 24.8 °F 11.5 °F 19.4 °F 80% 30.39 in 10.0 mi NNW 17.3 mph - N/A   Mostly Cloudy
5:54 AM 25.0 °F 13.6 °F 19.9 °F 81% 30.47 in 10.0 mi NNW 12.7 mph - N/A   Mostly Cloudy
6:03 AM 24.8 °F 13.4 °F 19.4 °F 80% 30.41 in 10.0 mi NNW 12.7 mph - N/A   Mostly Cloudy
6:54 AM 24.1 °F 13.1 °F 19.0 °F 81% 30.49 in 10.0 mi NW 11.5 mph - N/A   Overcast
7:54 AM 24.1 °F 14.4 °F 19.0 °F 81% 30.51 in 10.0 mi NNW 9.2 mph - N/A   Overcast
8:54 AM 23.0 °F 10.6 °F 17.1 °F 78% 30.52 in 10.0 mi NNW 13.8 mph - N/A   Mostly Cloudy
9:23 AM 24.8 °F 14.6 °F 17.6 °F 74% 30.46 in 10.0 mi NW 10.4 mph - N/A   Scattered Clouds
9:54 AM 25.0 °F 16.3 °F 17.1 °F 72% 30.51 in 10.0 mi NW 8.1 mph - N/A   Clear
10:54 AM 27.0 °F 17.3 °F 18.0 °F 69% 30.52 in 10.0 mi NW 10.4 mph - N/A   Clear
11:54 AM 27.0 °F 18.0 °F 17.1 °F 66% 30.51 in 10.0 mi West 9.2 mph - N/A   Clear
12:54 PM 28.0 °F 19.3 °F 12.9 °F 53% 30.49 in 10.0 mi WNW 9.2 mph - N/A   Clear
1:54 PM 28.9 °F 21.1 °F 12.0 °F 49% 30.48 in 10.0 mi WNW 8.1 mph - N/A   Clear
2:54 PM 30.9 °F 24.3 °F 12.9 °F 47% 30.47 in 10.0 mi West 6.9 mph - N/A   Clear
3:54 PM 28.9 °F 21.9 °F 10.9 °F 47% 30.45 in 10.0 mi WSW 6.9 mph 16.1 mph N/A   Clear
4:54 PM 25.0 °F 16.3 °F 12.0 °F 58% 30.45 in 10.0 mi West 8.1 mph - N/A   Clear
5:54 PM 24.1 °F 15.2 °F 12.0 °F 60% 30.45 in 10.0 mi WSW 8.1 mph - N/A   Clear
6:54 PM 24.1 °F 14.4 °F 12.0 °F 60% 30.44 in 10.0 mi West 9.2 mph - N/A   Clear
7:54 PM 23.0 °F 12.4 °F 10.9 °F 60% 30.43 in 10.0 mi West 10.4 mph - N/A   Partly Cloudy
8:54 PM 21.9 °F 11.7 °F 10.9 °F 63% 30.44 in 10.0 mi West 9.2 mph - N/A   Clear
9:54 PM 21.9 °F 10.4 °F 10.9 °F 63% 30.44 in 10.0 mi WNW 11.5 mph - N/A   Mostly Cloudy
10:49 PM 21.2 °F 7.8 °F 15.8 °F 80% 30.39 in 7.0 mi NW 15.0 mph - 0.00 in Snow Light Snow
10:54 PM 21.9 °F 9.8 °F 15.1 °F 75% 30.45 in 9.0 mi NW 12.7 mph - 0.00 in   Overcast
11:02 PM 21.2 °F 7.8 °F 15.8 °F 80% 30.39 in 10.0 mi NW 15.0 mph - N/A   Overcast
11:54 PM 21.0 °F 5.7 °F 12.9 °F 71% 30.47 in 9.0 mi NNW 19.6 mph 24.2 mph 0.00 in Snow Light Snow